User: anonymous   Login
Location: Nairn
(57.5833°N, 3.8667°W)
Time: 23:02:50
(UTC+00:00)
Language:

Resurs 1-4 Rocket - Orbit

View from above orbital plane
View from above orbital plane
View from above satellite
View from above satellite

Ground track
Ground track

The orbit data is extracted from the following two-line orbital elements,

1 25400U 98043G   21210.40796722 -.00000009  00000-0  14896-4 0  9990
2 25400  98.6404 145.6398 0009038 225.2662 134.7783 14.25479641198997
Epoch (UTC): 29 July 2021 09:47:28
Eccentricity: 0.0009038
inclination: 98.6404°
perigee height: 800 km
apogee height: 813 km
right ascension of ascending node: 145.6398°
argument of perigee: 225.2662°
revolutions per day: 14.25479641
mean anomaly at epoch: 134.7783°
orbit number at epoch: 19899

The dashed part of the orbit path shows where the satellite is in the earth's shadow,  

DLR